Weather History for Paducah, KY

Change the Weather History Date:

Saturday, July 6, 2013

  Actual Average Record
Temperature  
Mean Temperature 75 °F 79 °F  
Max Temperature 86 °F 89 °F 107 °F (2012)
Min Temperature 64 °F 69 °F 54 °F (1972)
Degree Days  
Heating Degree Days 0 0  
Month to date heating degree days 0 0  
Since 1 June heating degree days 0 4  
Since 1 July heating degree days 0 0  
Cooling Degree Days 10 14  
Month to date cooling degree days 43 84  
Year to date cooling degree days 543 576  
Since 1 June cooling degree days 365 404  
Growing Degree Days 26 (Base 50)    
Moisture  
Dew Point 67 °F    
Average Humidity 78    
Maximum Humidity 100    
Minimum Humidity 55    
Precipitation  
Precipitation 0.42 in 0.14 in 2.02 in (1964)
Month to date precipitation 0.51 0.87  
Year to date precipitation 35.09 26.15  
Snow  
Snow 0.00 in 0.00 in - ()
Month to date snowfall 0.0 0.0  
Since 1 June snowfall 0.0 0.0  
Since 1 July snowfall 0.0 0.0  
Snow Depth 0.00 in    
Sea Level Pressure  
Sea Level Pressure 30.04 in    
Wind  
Wind Speed 5 mph (SSE)    
Max Wind Speed 22 mph    
Max Gust Speed 29 mph    
Visibility 9 miles    
Events Rain , Thunderstorm    
T = Trace of Precipitation, MM = Missing Value Source: NWS Daily Summary

Daily Weather History Graph

Daily Weather History Graph

Search for Another Location

Airport:

Trip Planner

Search our weather history database for the weather conditions in past years. The results will help you decide how hot, cold, wet, or windy it might be!

Date:

Astronomy

Jul. 06, 2013 Rise Set
Actual Time 5:41 AM CDT 8:17 PM CDT
Civil Twilight 5:11 AM CDT 8:48 PM CDT
Nautical Twilight 4:33 AM CDT 9:26 PM CDT
Astronomical Twilight 3:50 AM CDT 10:08 PM CDT
Moon 4:26 AM CDT (7/6) 7:00 PM CDT (7/6)
Length of Visible Light 15h 37m
Length of Day
14h 36m
Waning Crescent, 2% of the Moon is Illuminated
Jul 6
Waning Crescent
Jul 8
New
Jul 15
First Quarter
Jul 22
Full
Jul 29
Last Quarter

Hourly Weather History & Observations

Time (CDT) Temp. Heat Index Dew Point Humidity Pressure Visibility Wind Dir Wind Speed Gust Speed Precip Events Conditions
12:53 AM 71.1 °F - 68.0 °F 90% 30.02 in 10.0 mi SE 6.9 mph - N/A   Clear
1:53 AM 71.1 °F - 69.1 °F 93% 30.04 in 10.0 mi Calm Calm - N/A   Mostly Cloudy
2:53 AM 71.1 °F - 69.1 °F 93% 30.03 in 10.0 mi Calm Calm - N/A   Scattered Clouds
3:53 AM 71.1 °F - 69.1 °F 93% 30.03 in 10.0 mi SSE 5.8 mph - N/A   Scattered Clouds
4:51 AM 71.6 °F - 68.0 °F 88% 30.05 in 3.0 mi Calm Calm - 0.01 in Rain Heavy Rain
4:53 AM 71.1 °F - 68.0 °F 90% 30.04 in 3.0 mi Calm Calm - 0.03 in Rain , Thunderstorm Heavy Rain
5:08 AM 71.6 °F - 68.0 °F 88% 30.06 in 10.0 mi Calm Calm - 0.00 in Thunderstorm Overcast
5:26 AM 71.6 °F - 68.0 °F 88% 30.06 in 10.0 mi Calm Calm - 0.00 in   Mostly Cloudy
5:53 AM 70.0 °F - 68.0 °F 93% 30.05 in 10.0 mi SE 3.5 mph - 0.00 in   Scattered Clouds
6:40 AM 69.8 °F - 66.2 °F 88% 30.08 in 10.0 mi ESE 4.6 mph - N/A   Mostly Cloudy
6:53 AM 70.0 °F - 66.9 °F 90% 30.07 in 10.0 mi ESE 3.5 mph - N/A   Overcast
7:53 AM 71.1 °F - 68.0 °F 90% 30.08 in 10.0 mi ESE 5.8 mph - N/A   Mostly Cloudy
8:07 AM 71.6 °F - 68.0 °F 88% 30.09 in 10.0 mi SE 6.9 mph - N/A   Mostly Cloudy
8:53 AM 73.9 °F - 69.1 °F 85% 30.08 in 10.0 mi SSE 5.8 mph - N/A   Clear
9:33 AM 75.2 °F - 66.2 °F 73% 30.08 in 10.0 mi SSW 5.8 mph - N/A   Mostly Cloudy
9:53 AM 75.9 °F - 68.0 °F 76% 30.06 in 10.0 mi SSE 8.1 mph - N/A   Mostly Cloudy
10:46 AM 78.8 °F - 68.0 °F 69% 30.08 in 10.0 mi South 4.6 mph - N/A   Overcast
10:53 AM 78.1 °F - 68.0 °F 71% 30.07 in 10.0 mi SSE 3.5 mph - N/A   Mostly Cloudy
11:53 AM 82.0 °F 84.9 °F 68.0 °F 62% 30.06 in 10.0 mi Variable 6.9 mph - N/A   Mostly Cloudy
12:53 PM 82.0 °F 85.5 °F 69.1 °F 65% 30.04 in 10.0 mi Variable 3.5 mph - N/A   Scattered Clouds
1:53 PM 84.0 °F 86.5 °F 66.9 °F 56% 30.02 in 10.0 mi WSW 10.4 mph - N/A   Scattered Clouds
2:53 PM 82.9 °F 85.0 °F 66.0 °F 56% 30.00 in 10.0 mi South 5.8 mph - N/A   Partly Cloudy
3:53 PM 84.0 °F 86.3 °F 66.0 °F 55% 29.99 in 10.0 mi Variable 5.8 mph - N/A   Partly Cloudy
4:19 PM 80.6 °F 83.9 °F 69.8 °F 70% 30.00 in 10.0 mi Calm Calm - N/A Thunderstorm Thunderstorm
4:53 PM 84.0 °F 87.8 °F 69.1 °F 61% 29.97 in 10.0 mi Variable 3.5 mph - N/A Thunderstorm Thunderstorm
5:31 PM 80.6 °F 83.9 °F 69.8 °F 70% 29.99 in 10.0 mi NNE 3.5 mph - N/A Thunderstorm Thunderstorm
5:53 PM 79.0 °F - 69.1 °F 72% 29.98 in 10.0 mi ENE 3.5 mph - 0.00 in Rain , Thunderstorm Light Thunderstorms and Rain
6:24 PM 69.8 °F - 64.4 °F 83% 30.02 in 1.8 mi West 21.9 mph 28.8 mph 0.02 in Rain , Thunderstorm Heavy Thunderstorms and Rain
6:33 PM 68.0 °F - 64.4 °F 88% 29.99 in 0.8 mi West 10.4 mph - 0.30 in Rain , Thunderstorm Heavy Thunderstorms and Rain
6:42 PM 68.0 °F - 64.4 °F 88% 30.00 in 1.5 mi WSW 9.2 mph - 0.38 in Rain , Thunderstorm Heavy Thunderstorms and Rain
6:47 PM 68.0 °F - 64.4 °F 88% 30.02 in 3.0 mi WSW 5.8 mph - 0.39 in Rain , Thunderstorm Light Thunderstorms and Rain
6:53 PM 68.0 °F - 64.9 °F 90% 30.02 in 10.0 mi North 11.5 mph - 0.39 in Rain , Thunderstorm Light Thunderstorms and Rain
7:53 PM 70.0 °F - 66.0 °F 87% 30.03 in 10.0 mi ENE 5.8 mph - 0.00 in Thunderstorm Thunderstorm
8:25 PM 69.8 °F - 66.2 °F 88% 30.05 in 10.0 mi ESE 6.9 mph - N/A   Scattered Clouds
8:53 PM 68.0 °F - 64.9 °F 90% 30.03 in 10.0 mi Calm Calm - N/A   Clear
9:53 PM 66.9 °F - 64.0 °F 90% 30.05 in 10.0 mi South 6.9 mph - N/A   Partly Cloudy
10:53 PM 66.9 °F - 64.0 °F 90% 30.06 in 10.0 mi East 5.8 mph - N/A   Clear
11:53 PM 64.9 °F - 64.0 °F 97% 30.05 in 10.0 mi SSE 3.5 mph - N/A   Clear